[[{"header":{"parameterUnit":"m.s-1","parameterCategory":1,"la1":30.2991,"la2":30.254,"lo1":-89.0895,"lo2":-89.0444,"dy":0.0017,"dx":0.0017,"nx":28,"ny":28,"refTime":"2025-03-20T03:00:00:Z","depth":0,"parameterNumber":2,"parameterNumberName":"U-component_of_WINDS"},"data":[0,0,0,0,0,0,0,0,0,0,0,0,0,0,0,0,0,0,0,0,0,0,0,0,0,0,0,0,0,0,0,0,0,0,0,0,0,0,0,0,0,0,0,0,0,0,0,0,0,0,0,0,0,0,0,0,0,0,2.3769,2.3769,0,2.3766,2.3765,2.3765,2.3696,2.3694,2.3692,2.3691,2.3687,2.3688,2.369,0,0,0,0,0,0,0,0,0,0,0,0,0,2.3718,2.372,2.3769,2.3769,2.3769,2.3766,2.3765,2.3765,2.3696,2.3694,2.3692,2.369,2.3686,2.3688,2.369,0,0,0,0,0,0,0,0,0,0,0,0,0,2.373,2.372,2.3769,2.3734,2.3731,2.3766,2.3765,2.3765,2.3697,2.3694,2.3691,2.3689,2.3685,2.3688,2.369,2.3758,0,0,2.3697,2.3698,0,0,0,0,0,0,0,0,2.373,2.3732,2.374,2.3737,2.3733,2.3728,2.3746,2.3763,2.3697,2.371,2.3691,2.3688,2.3703,2.3703,2.3708,2.3757,2.3757,2.3697,2.3699,2.37,2.37,0,0,0,0,0,0,0,2.3729,2.3732,2.3768,2.374,2.3736,2.3719,2.3718,2.3749,2.3721,2.3708,2.3703,2.3704,2.37,2.3706,2.3708,2.3757,2.3697,2.3699,2.3701,2.3702,2.3864,2.3866,0,0,0,0,0,0,2.3733,2.3732,2.3768,2.3768,2.3725,2.3722,2.3721,2.3733,2.3721,2.3716,2.3706,2.3701,2.3704,2.3705,2.3707,2.3787,2.37,2.3702,2.3703,2.3861,2.3864,2.3867,0,0,0,0,0,0,2.3732,2.3737,2.3768,2.3748,2.3751,2.3726,2.374,2.3734,2.374,2.3719,2.3714,2.3717,2.3702,2.3704,2.3746,2.3786,2.3703,2.3705,2.3857,2.3862,2.3866,2.3946,0,0,0,0,0,0,2.3731,2.3737,2.3762,2.3749,2.3752,2.3807,2.3742,2.3736,2.3744,2.3737,2.3728,2.3724,2.37,2.3743,2.3748,2.3788,2.3707,2.3854,2.3859,2.3865,2.394,2.3953,2.3964,0,0,0,0,0,2.3729,2.3784,2.3763,2.3768,2.3783,2.3809,2.3811,2.3782,2.3748,2.3773,2.376,2.3724,2.3781,2.3748,2.3753,2.3794,2.3851,2.3858,2.3864,2.3934,2.395,2.3963,0,0,0,0,0,0,2.38,2.3781,2.3758,2.381,2.3812,2.3797,2.3828,2.3799,2.381,2.3803,2.3767,2.3765,2.3813,2.3808,2.3771,2.386,2.381,2.3818,2.3862,2.3876,2.3888,2.3888,2.3709,0,0,0,0,0,2.3822,2.3845,2.3827,2.3875,2.3877,2.3853,2.3863,2.3841,2.3841,2.3841,2.3831,2.3832,2.385,2.3863,2.3878,2.3939,2.3937,2.397,2.3982,2.3992,2.3999,2.4032,2.4047,2.3889,2.3889,2.3889,0,0,2.3867,2.386,2.3876,2.3889,2.3887,2.3912,2.3853,2.3881,2.39,2.3845,2.3884,2.3877,2.3877,2.3929,2.3951,2.3926,2.4043,2.4,2.4008,2.401,2.4041,2.4056,2.4069,2.3894,2.3893,2.3892,0,0,2.3962,2.3958,2.3999,2.3999,2.3998,2.3982,2.3992,2.3982,2.3976,2.4015,2.3975,2.3997,2.4028,2.403,2.4035,2.4135,2.4103,2.4141,2.4203,2.4236,2.4249,2.4259,2.4296,2.4309,2.4148,2.4148,2.4148,0,2.4018,2.4053,2.4023,2.4055,2.4062,2.4015,2.4056,2.4058,2.4062,2.4069,2.4041,2.4081,2.4077,2.413,2.4155,2.416,2.4171,2.4141,2.4249,2.426,2.427,2.4304,2.4318,2.4153,2.4152,2.4152,2.4152,0,2.4123,2.4149,2.4181,2.4188,2.4199,2.4236,2.4211,2.4227,2.4205,2.4192,2.4234,2.4228,2.4243,2.4254,2.4232,2.4304,2.4289,2.4256,2.4204,2.429,2.4322,2.4334,2.416,2.4158,2.4157,2.4155,0,0,2.426,2.4251,2.4264,2.4267,2.4264,2.4284,2.4319,2.4334,2.4348,2.4354,2.4383,2.4412,2.4383,2.4389,2.4367,2.4396,2.4477,2.4359,2.4359,2.4382,2.4558,2.4583,2.4599,2.4456,2.4459,2.446,2.4558,0,2.4352,2.4411,2.4386,2.4448,2.4473,2.443,2.4461,2.4463,2.4453,2.4473,2.4461,2.4483,2.4442,2.4445,2.4472,2.4461,2.4512,2.4454,2.4483,2.4485,2.4485,2.4615,2.4641,2.4733,2.457,2.4572,2.4574,0,2.4467,2.4478,2.4543,2.4538,2.4548,2.4576,2.4589,2.4608,2.461,2.4601,2.461,2.4582,2.4617,2.4568,2.4616,2.4578,2.4589,2.4586,2.4588,2.459,2.4534,2.462,2.4762,2.4776,2.4593,2.4591,2.459,0,2.4561,2.4593,2.4637,2.4641,2.4636,2.4657,2.4656,2.4656,2.4667,2.4679,2.4686,2.4702,2.471,2.4723,2.4701,2.4667,2.4754,2.4702,2.4748,2.4748,2.4767,2.4766,2.4913,2.4775,2.4774,2.4774,2.4774,0,2.4667,2.4708,2.4679,2.4706,2.4752,2.4724,2.477,2.4764,2.4765,2.4791,2.4755,2.478,2.4749,2.4771,2.4755,2.4798,2.4802,2.4796,2.4791,2.48,2.4801,2.4806,2.4799,2.4778,2.4777,2.4776,2.4776,0,2.4779,2.4761,2.4806,2.4799,2.4798,2.4833,2.4827,2.4852,2.484,2.4873,2.4879,2.4862,2.4886,2.4866,2.4889,2.4878,2.4937,2.4922,2.4936,2.4932,2.4979,2.4976,2.5135,2.5154,2.5004,2.5005,2.5006,0,2.4847,2.4879,2.4876,2.4891,2.4892,2.4917,2.4929,2.4903,2.4917,2.4924,2.4949,2.497,2.4986,2.5028,2.5017,2.5036,2.5022,2.5076,2.5024,2.5032,2.5023,2.5022,2.5025,2.5087,2.5089,2.509,2.5091,0,2.4971,2.4961,2.498,2.4997,2.5013,2.5025,2.5034,2.5048,2.5022,2.504,2.5066,2.5078,2.5104,2.5126,2.5142,2.5141,2.5113,2.5108,2.512,2.5128,2.5135,2.5133,2.4965,2.5104,2.5103,2.5102,2.5101,2.5101,2.5063,2.509,2.5093,2.5116,2.5121,2.5131,2.5154,2.5147,2.5168,2.5187,2.5171,2.5202,2.5205,2.5223,2.5227,2.5251,2.5228,2.5245,2.5249,2.5254,2.5261,2.5132,2.5253,2.5253,2.5253,2.5252,2.5252,0,2.5185,2.5186,2.5207,2.5222,2.5241,2.5214,2.5223,2.5241,2.5268,2.5275,2.5292,2.5322,2.5345,2.5337,2.5357,2.5378,2.5366,2.5384,2.5382,2.5383,2.5279,2.5268,2.5394,2.5394,2.5394,2.5394,2.5394,2.5394,2.525,2.5295,2.5286,2.5333,2.5333,2.5364,2.5372,2.5382,2.5387,2.5423,2.5441,2.5437,2.5438,2.5458,2.5478,2.5475,2.5485,2.5508,2.5501,2.5404,2.539,2.5377,2.5365,2.551,2.5511,2.5602,2.5603,2.5604]},{"header":{"parameterUnit":"m.s-1","parameterCategory":1,"la1":30.2991,"la2":30.254,"lo1":-89.0895,"lo2":-89.0444,"dy":0.0017,"dx":0.0017,"nx":28,"ny":28,"refTime":"2025-03-20T03:00:00:Z","depth":0,"parameterNumber":3,"parameterNumberName":"V-component_of_WINDS"},"data":[0,0,0,0,0,0,0,0,0,0,0,0,0,0,0,0,0,0,0,0,0,0,0,0,0,0,0,0,0,0,0,0,0,0,0,0,0,0,0,0,0,0,0,0,0,0,0,0,0,0,0,0,0,0,0,0,0,0,-5.9068,-5.907,0,-5.9248,-5.925,-5.9252,-5.9177,-5.9172,-5.9168,-5.9164,-5.9347,-5.9356,-5.9365,0,0,0,0,0,0,0,0,0,0,0,0,0,-5.8657,-5.8665,-5.9068,-5.907,-5.9072,-5.9248,-5.925,-5.9253,-5.9177,-5.9172,-5.9167,-5.9162,-5.9344,-5.9355,-5.9365,0,0,0,0,0,0,0,0,0,0,0,0,0,-5.8836,-5.8667,-5.9067,-5.9056,-5.9057,-5.9248,-5.9251,-5.9254,-5.9178,-5.9172,-5.9165,-5.9159,-5.9341,-5.9354,-5.9367,-5.958,0,0,-5.9408,-5.9414,0,0,0,0,0,0,0,0,-5.8826,-5.8851,-5.9055,-5.9057,-5.9058,-5.9183,-5.9173,-5.9363,-5.918,-5.9132,-5.9164,-5.9156,-5.9298,-5.9314,-5.9362,-5.9588,-5.9596,-5.9409,-5.9417,-5.9423,-5.9427,0,0,0,0,0,0,0,-5.8814,-5.8843,-5.9139,-5.9058,-5.906,-5.9041,-5.906,-5.9208,-5.9249,-5.9136,-5.9131,-5.9153,-5.9297,-5.935,-5.9366,-5.9599,-5.9409,-5.9421,-5.9429,-5.9434,-6.0009,-6.0015,0,0,0,0,0,0,-5.8801,-5.8833,-5.9133,-5.9145,-5.8924,-5.9054,-5.9074,-5.915,-5.9247,-5.9256,-5.9159,-5.9149,-5.933,-5.9351,-5.9372,-5.9628,-5.9423,-5.9435,-5.9443,-6.0001,-6.001,-6.0018,0,0,0,0,0,0,-5.8793,-5.8829,-5.9126,-5.8988,-5.9024,-5.9068,-5.9153,-5.9157,-5.9209,-5.9265,-5.9271,-5.9205,-5.9326,-5.9353,-5.9529,-5.9634,-5.9441,-5.9454,-5.9993,-6.0004,-6.0014,-6.0142,0,0,0,0,0,0,-5.8781,-5.8826,-5.8908,-5.899,-5.9032,-5.9281,-5.916,-5.9165,-5.9232,-5.9222,-5.931,-5.9318,-5.9323,-5.9509,-5.9542,-5.9649,-5.9464,-5.9984,-5.9998,-6.0011,-6.0129,-6.0156,-6.0179,0,0,0,0,0,-5.8767,-5.8936,-5.8912,-5.8949,-5.9135,-5.9287,-5.931,-5.9313,-5.9241,-5.9323,-5.9359,-5.9315,-5.9617,-5.9528,-5.9564,-5.9676,-5.9977,-5.9994,-6.001,-6.0117,-6.0151,-6.0179,0,0,0,0,0,0,-5.8864,-5.8947,-5.8921,-5.9122,-5.9198,-5.9274,-5.9377,-5.9348,-5.9446,-5.9431,-5.943,-5.945,-5.9632,-5.9671,-5.9571,-5.9887,-5.9786,-5.981,-5.9855,-5.9887,-5.9912,-5.9899,-5.9475,0,0,0,0,0,-5.8909,-5.9026,-5.9092,-5.9263,-5.9302,-5.9334,-5.94,-5.9395,-5.9474,-5.9505,-5.9554,-5.9631,-5.9743,-5.9817,-5.9923,-6.0133,-6.0152,-6.0228,-6.0254,-6.0274,-6.0296,-6.041,-6.0445,-6.0071,-6.0071,-6.0071,0,0,-5.9003,-5.9063,-5.9137,-5.9284,-5.9342,-5.9463,-5.9361,-5.9493,-5.9583,-5.9525,-5.9694,-5.9733,-5.9819,-6.0013,-6.0101,-6.0051,-6.0403,-6.0295,-6.0311,-6.0321,-6.0431,-6.0466,-6.0498,-6.0082,-6.008,-6.0079,0,0,-5.9237,-5.9293,-5.9442,-5.9503,-5.9593,-5.9613,-5.9648,-5.9729,-5.9753,-5.9922,-5.9882,-5.9988,-6.0181,-6.0244,-6.0302,-6.056,-6.0523,-6.0594,-6.0727,-6.0839,-6.0868,-6.0894,-6.0987,-6.1021,-6.0615,-6.0616,-6.0616,0,-5.9342,-5.9523,-5.9522,-5.9659,-5.9725,-5.9678,-5.9829,-5.9888,-6.0008,-6.0055,-5.9998,-6.024,-6.0294,-6.0503,-6.0566,-6.0614,-6.0655,-6.0585,-6.0864,-6.089,-6.0915,-6.1003,-6.1038,-6.0624,-6.0623,-6.0622,-6.0621,0,-5.9649,-5.9775,-5.9885,-6.0003,-6.0081,-6.0224,-6.0245,-6.0324,-6.0312,-6.0338,-6.0512,-6.0576,-6.0695,-6.0743,-6.0733,-6.0951,-6.0918,-6.0863,-6.0761,-6.0959,-6.1042,-6.1076,-6.0635,-6.0632,-6.063,-6.0628,0,0,-5.9949,-6.0065,-6.0105,-6.0159,-6.0254,-6.0352,-6.0493,-6.0609,-6.0678,-6.0762,-6.088,-6.1045,-6.0995,-6.106,-6.1057,-6.1155,-6.1356,-6.1088,-6.109,-6.1136,-6.1601,-6.1643,-6.1682,-6.1332,-6.1339,-6.1344,-6.1594,0,-6.0191,-6.0438,-6.0442,-6.0669,-6.0786,-6.0744,-6.0866,-6.0938,-6.0966,-6.1069,-6.1099,-6.1217,-6.1141,-6.118,-6.1276,-6.1312,-6.145,-6.1293,-6.1442,-6.1448,-6.1423,-6.1726,-6.177,-6.2004,-6.1627,-6.1632,-6.1636,0,-6.0505,-6.0601,-6.084,-6.092,-6.0969,-6.1079,-6.1187,-6.1286,-6.1366,-6.138,-6.1454,-6.1435,-6.1579,-6.1472,-6.1669,-6.1563,-6.1624,-6.1651,-6.166,-6.1675,-6.1555,-6.175,-6.2078,-6.2114,-6.1687,-6.1683,-6.168,0,-6.0702,-6.089,-6.1057,-6.1104,-6.1201,-6.128,-6.1323,-6.1398,-6.1468,-6.1562,-6.1607,-6.1716,-6.1776,-6.1861,-6.1873,-6.1794,-6.2072,-6.1966,-6.2087,-6.2087,-6.2149,-6.2145,-6.2493,-6.2186,-6.2186,-6.2185,-6.2184,0,-6.0972,-6.112,-6.1147,-6.1251,-6.1416,-6.1418,-6.1581,-6.1618,-6.1685,-6.1795,-6.1764,-6.1867,-6.1876,-6.1983,-6.1992,-6.2155,-6.2182,-6.2197,-6.2198,-6.2201,-6.2199,-6.2241,-6.2226,-6.2195,-6.2192,-6.2191,-6.2189,0,-6.1219,-6.1243,-6.1424,-6.1501,-6.1523,-6.1642,-6.1708,-6.1806,-6.1831,-6.197,-6.2003,-6.2042,-6.2166,-6.2185,-6.233,-6.2337,-6.2532,-6.2516,-6.2506,-6.2504,-6.2625,-6.2614,-6.3013,-6.3066,-6.2724,-6.2727,-6.273,0,-6.1391,-6.1504,-6.1593,-6.1665,-6.1713,-6.1829,-6.19,-6.1907,-6.1983,-6.2084,-6.2171,-6.2291,-6.2388,-6.2588,-6.2629,-6.274,-6.2727,-6.2859,-6.2743,-6.2743,-6.273,-6.2724,-6.2735,-6.2882,-6.2885,-6.2888,-6.2891,0,-6.1692,-6.1699,-6.1804,-6.1914,-6.2,-6.2087,-6.2168,-6.2228,-6.2245,-6.2332,-6.2459,-6.2534,-6.2683,-6.2804,-6.2914,-6.2958,-6.2929,-6.2927,-6.2961,-6.2965,-6.2955,-6.2963,-6.2568,-6.2918,-6.2915,-6.2913,-6.2912,-6.2911,-6.1908,-6.2007,-6.2086,-6.2204,-6.2266,-6.2343,-6.244,-6.2477,-6.2583,-6.2705,-6.2702,-6.2841,-6.2919,-6.3064,-6.3116,-6.3225,-6.3182,-6.3232,-6.3245,-6.3257,-6.3269,-6.2937,-6.3245,-6.3244,-6.3244,-6.3243,-6.3242,0,-6.2209,-6.2258,-6.2366,-6.2482,-6.2575,-6.2538,-6.2627,-6.2707,-6.283,-6.2906,-6.3002,-6.3148,-6.3265,-6.3315,-6.343,-6.3507,-6.3496,-6.3537,-6.3532,-6.3543,-6.33,-6.326,-6.3544,-6.3544,-6.3544,-6.3544,-6.3544,-6.3544,-6.2377,-6.2543,-6.2559,-6.2755,-6.2802,-6.2939,-6.2993,-6.3064,-6.3125,-6.3289,-6.3386,-6.3418,-6.3484,-6.3603,-6.3709,-6.372,-6.3765,-6.3812,-6.3818,-6.3591,-6.356,-6.3531,-6.3493,-6.3822,-6.3822,-6.4052,-6.4054,-6.4055]}]]